Location: Asheville, NC
(35.6000°N, 82.5500°W)
Time: 00:12:11
(UTC-04:00)

Tiangong 2 - Pass Details

Date: 14 October 2017
Orbit: 388 x 391 km, 42.8° (Epoch: 22 October)

Event Time Altitude Azimuth Distance (km) Brightness Sun altitude
Exits shadow 06:30:49 16° 324° (NW) 1,127 3.1 -14.0°
Maximum altitude 06:32:21 21° 2° (N) 925 3.0 -13.7°
Drops below altitude 10° 06:34:54 10° 55° (NE) 1,418 4.8 -13.2°
Sets 06:37:18 0° 71° (ENE) 2,273 6.4 -12.7°
